,,Stat6,,Stat2,,Stat8,,Stat9,,Stat10,,Wind1,,Wind1,
time,status,PA1M_AVG,status,PR1M_SUM,status,RH1M_AVG,status,SR1M_AVG,status,TA1M_AVG,status,W1dAve1m,status,W1sAve1m,
2004-03-17, 00:00:00,VALID,919.037,VALID,0,VALID,89.4892,VALID,-0.0509425,VALID,19.2576,VALID,5,VALID,1.23717,
2004-03-17, 00:01:00,VALID,919.035,VALID,0,VALID,89.4421,VALID,-0.0339617,VALID,19.2479,VALID,14,VALID,1.11028,
2004-03-17, 00:02:00,VALID,919.04,VALID,0,VALID,89.6049,VALID,-0.0169808,VALID,19.2417,VALID,14,VALID,1.17206,
2004-03-17, 00:03:00,VALID,919.007,VALID,0,VALID,89.3379,VALID,-0.0509425,VALID,19.235,VALID,360,VALID,1.46437,
2004-03-17, 00:04:00,VALID,919.008,VALID,0,VALID,88.9932,VALID,-0.0169808,VALID,19.2809,VALID,10,VALID,1.73304,
2004-03-17, 00:05:00,VALID,918.991,VALID,0,VALID,88.9932,VALID,-0.0169808,VALID,19.2735,VALID,9,VALID,1.55432,
2004-03-17, 00:06:00,VALID,918.987,VALID,0,VALID,89.0161,VALID,-0.0339617,VALID,19.2834,VALID,16,VALID,1.32722,
2004-03-17, 00:07:00,VALID,918.963,VALID,0,VALID,88.73,VALID,-0.0509425,VALID,19.2839,VALID,359,VALID,1.43377,
2004-03-17, 00:08:00,VALID,918.927,VALID,0,VALID,88.599,VALID,-0.0679233,VALID,19.2802,VALID,15,VALID,1.75491,
2004-03-17, 00:09:00,VALID,918.94,VALID,0,VALID,88.4096,VALID,-0.0339617,VALID,19.2929,VALID,7,VALID,1.80796,
2004-03-17, 00:10:00,VALID,918.945,VALID,0,VALID,88.1616,VALID,-0.0169808,VALID,19.3127,VALID,356,VALID,1.75744,
2004-03-17, 00:11:00,VALID,918.957,VALID,0,VALID,88.0459,VALID,0,VALID,19.3545,VALID,18,VALID,1.88077,
2004-03-17, 00:12:00,VALID,918.959,VALID,0,VALID,88.4388,VALID,0,VALID,19.3741,VALID,17,VALID,1.09115,
2004-03-17, 00:13:00,VALID,918.954,VALID,0,VALID,88.1998,VALID,-0.0169808,VALID,19.3381,VALID,10,VALID,1.76429,
2004-03-17, 00:14:00,VALID,918.924,VALID,0,VALID,88.4083,VALID,-0.0169808,VALID,19.3155,VALID,360,VALID,1.23419,
2004-03-17, 00:15:00,VALID,918.896,VALID,0,VALID,88.4693,VALID,-0.0679233,VALID,19.3231,VALID,17,VALID,1.56942,
2004-03-17, 00:16:00,VALID,918.876,VALID,0,VALID,88.7822,VALID,-0.0169808,VALID,19.2869,VALID,5,VALID,1.0451,
2004-03-17, 00:17:00,VALID,918.851,VALID,0,VALID,88.8979,VALID,-0.0169808,VALID,19.2417,VALID,9,VALID,1.47148,
2004-03-17, 00:18:00,VALID,918.8,VALID,0,VALID,88.36,VALID,-0.0509425,VALID,19.2454,VALID,353,VALID,1.68005,
2004-03-17, 00:19:00,VALID,918.779,VALID,0,VALID,88.4147,VALID,-0.0169808,VALID,19.2742,VALID,4,VALID,1.28853,
2004-03-17, 00:20:00,VALID,918.779,VALID,0,VALID,88.5952,VALID,-0.0679233,VALID,19.2546,VALID,352,VALID,1.28281,
2004-03-17, 00:21:00,VALID,918.792,VALID,0,VALID,88.6703,VALID,-0.0339617,VALID,19.2325,VALID,352,VALID,0.831936,
2004-03-17, 00:22:00,VALID,918.77,VALID,0,VALID,88.9767,VALID,-0.0339617,VALID,19.2069,VALID,17,VALID,1.05033,
2004-03-17, 00:23:00,VALID,918.766,VALID,0,VALID,89.2616,VALID,0,VALID,19.1644,VALID,7,VALID,1.02235,
2004-03-17, 00:24:01,VALID,918.764,VALID,0,VALID,89.301,VALID,-0.0509425,VALID,19.1351,VALID,356,VALID,1.17488,
2004-03-17, 00:25:00,VALID,918.765,VALID,0,VALID,89.5375,VALID,-0.0679233,VALID,19.1125,VALID,12,VALID,1.37009,
2004-03-17, 00:26:00,VALID,918.763,VALID,0,VALID,89.8617,VALID,-0.0509425,VALID,19.0899,VALID,19,VALID,1.2793,
2004-03-17, 00:27:00,VALID,918.763,VALID,0,VALID,89.7486,VALID,-0.0339617,VALID,19.0706,VALID,1,VALID,1.08092,
2004-03-17, 00:28:00,VALID,918.738,VALID,0,VALID,89.9584,VALID,-0.0509425,VALID,19.0574,VALID,13,VALID,1.56536,
2004-03-17, 00:29:01,VALID,918.719,VALID,0,VALID,89.835,VALID,-0.0339617,VALID,19.0482,VALID,8,VALID,1.81128,
2004-03-17, 00:30:00,VALID,918.713,VALID,0,VALID,89.7142,VALID,-0.0679233,VALID,19.0648,VALID,10,VALID,1.46194,
2004-03-17, 00:31:01,VALID,918.708,VALID,0,VALID,89.9609,VALID,-0.0169808,VALID,19.0512,VALID,19,VALID,1.08475,
2004-03-17, 00:32:00,VALID,918.668,VALID,0,VALID,90.1123,VALID,-0.0169808,VALID,19.0447,VALID,22,VALID,0.594367,
2004-03-17, 00:33:01,VALID,918.642,VALID,0,VALID,90.041,VALID,-0.0169808,VALID,19.0351,VALID,18,VALID,0.57758,
2004-03-17, 00:34:01,VALID,918.601,VALID,0,VALID,90.2076,VALID,-0.0169808,VALID,19.0256,VALID,9,VALID,1.41279,
2004-03-17, 00:35:00,VALID,918.566,VALID,0,VALID,89.9864,VALID,-0.0679233,VALID,19.0291,VALID,14,VALID,1.69375,
2004-03-17, 00:36:00,VALID,918.571,VALID,0,VALID,90.2305,VALID,-0.101885,VALID,19.0837,VALID,321,VALID,0.73402,
2004-03-17, 00:37:01,VALID,918.565,VALID,0,VALID,90.1733,VALID,-0.0849042,VALID,19.0941,VALID,10,VALID,1.3019,
2004-03-17, 00:38:00,VALID,918.555,VALID,0,VALID,89.0009,VALID,-0.0679233,VALID,19.1684,VALID,7,VALID,1.60102,
2004-03-17, 00:39:01,VALID,918.559,VALID,0,VALID,89.1039,VALID,-0.0509425,VALID,19.2424,VALID,14,VALID,0.968568,
2004-03-17, 00:40:00,VALID,918.568,VALID,0,VALID,89.5833,VALID,-0.0509425,VALID,19.2323,VALID,20,VALID,0.643483,
2004-03-17, 00:41:00,VALID,918.563,VALID,0,VALID,89.8185,VALID,-0.0169808,VALID,19.1898,VALID,17,VALID,0.603237,
2004-03-17, 00:42:00,VALID,918.542,VALID,0,VALID,89.8592,VALID,-0.0679233,VALID,19.1617,VALID,13,VALID,0.81343,
2004-03-17, 00:43:00,VALID,918.541,VALID,0,VALID,90.3793,VALID,-0.0509425,VALID,19.1289,VALID,24,VALID,0.941707,
2004-03-17, 00:44:00,VALID,918.524,VALID,0,VALID,90.8434,VALID,-0.0509425,VALID,19.0934,VALID,26,VALID,0.743676,
2004-03-17, 00:45:01,VALID,918.528,VALID,0,VALID,90.86,VALID,-0.0509425,VALID,19.0777,VALID,12,VALID,0.472284,
2004-03-17, 00:46:00,VALID,918.5,VALID,0,VALID,90.7837,VALID,-0.0509425,VALID,19.0417,VALID,18,VALID,0.673692,
2004-03-17, 00:47:00,VALID,918.474,VALID,0,VALID,90.9464,VALID,-0.0339617,VALID,19.0291,VALID,9,VALID,0.869591,
2004-03-17, 00:48:01,VALID,918.469,VALID,0,VALID,91.4436,VALID,-0.0849042,VALID,18.9839,VALID,17,VALID,1.04199,
2004-03-17, 00:49:00,VALID,918.455,VALID,0,VALID,91.3775,VALID,-0.0339617,VALID,18.9484,VALID,21,VALID,0.963224,
2004-03-17, 00:50:00,VALID,918.415,VALID,0,VALID,91.1906,VALID,-0.0509425,VALID,18.9583,VALID,16,VALID,0.930246,
2004-03-17, 00:51:01,VALID,918.407,VALID,0,VALID,91.1041,VALID,-0.0509425,VALID,18.961,VALID,18,VALID,0.771662,
2004-03-17, 00:52:01,VALID,918.415,VALID,0,VALID,90.9591,VALID,-0.0509425,VALID,18.9613,VALID,7,VALID,0.852344,
2004-03-17, 00:53:01,VALID,918.386,VALID,0,VALID,90.7722,VALID,-0.0679233,VALID,18.9839,VALID,22,VALID,0.97311,
2004-03-17, 00:54:00,VALID,918.371,VALID,0,VALID,90.8333,VALID,-0.101885,VALID,18.9906,VALID,16,VALID,1.12556,
2004-03-17, 00:55:00,VALID,918.362,VALID,0,VALID,90.5573,VALID,-0.0509425,VALID,18.9903,VALID,12,VALID,1.29987,
2004-03-17, 00:56:00,VALID,918.339,VALID,0,VALID,90.1339,VALID,-0.0849042,VALID,19.0263,VALID,3,VALID,1.3207,
2004-03-17, 00:57:00,VALID,918.34,VALID,0,VALID,90.022,VALID,-0.0509425,VALID,19.0807,VALID,16,VALID,1.14081,
2004-03-17, 00:58:00,VALID,918.313,VALID,0,VALID,90.0232,VALID,-0.0679233,VALID,19.1003,VALID,19,VALID,1.26783,
2004-03-17, 00:59:01,VALID,918.311,VALID,0,VALID,89.9622,VALID,-0.0339617,VALID,19.1264,VALID,7,VALID,1.49485,
2004-03-17, 01:00:00,VALID,918.335,VALID,0,VALID,89.8707,VALID,-0.101885,VALID,19.1324,VALID,6,VALID,0.729492,
2004-03-17, 01:01:00,VALID,918.327,VALID,0,VALID,90.1593,VALID,0.0169808,VALID,19.157,VALID,23,VALID,0.622396,
2004-03-17, 01:02:00,VALID,918.326,VALID,0,VALID,90.3958,VALID,0.0339617,VALID,19.1213,VALID,12,VALID,0.826936,
2004-03-17, 01:03:00,VALID,918.304,VALID,0,VALID,90.3793,VALID,0.0169808,VALID,19.086,VALID,6,VALID,0.180035,
2004-03-17, 01:04:00,VALID,918.281,VALID,0,VALID,90.4289,VALID,0.0679233,VALID,19.0698,VALID,4,VALID,0.229048,
2004-03-17, 01:05:00,VALID,918.242,VALID,0,VALID,90.5573,VALID,0.0339617,VALID,19.0634,VALID,8,VALID,0.667791,
2004-03-17, 01:06:00,VALID,918.211,VALID,0,VALID,90.5904,VALID,0.0339617,VALID,19.0726,VALID,358,VALID,1.46403,
2004-03-17, 01:07:01,VALID,918.218,VALID,0,VALID,90.4874,VALID,0.0339617,VALID,19.118,VALID,8,VALID,0.457849,
2004-03-17, 01:08:00,VALID,918.206,VALID,0,VALID,90.434,VALID,0.0679233,VALID,19.1245,VALID,2,VALID,0.0457589,
2004-03-17, 01:09:01,VALID,918.222,VALID,0,VALID,90.4225,VALID,0.0339617,VALID,19.1277,VALID,2,VALID,0,
2004-03-17, 01:10:00,VALID,918.208,VALID,0,VALID,90.7379,VALID,0.0339617,VALID,19.1506,VALID,2,VALID,0.462806,
2004-03-17, 01:11:00,VALID,918.198,VALID,0,VALID,90.8829,VALID,0.0169808,VALID,19.1339,VALID,2,VALID,0.510417,
2004-03-17, 01:12:00,VALID,918.153,VALID,0,VALID,91.3673,VALID,0.0169808,VALID,19.1021,VALID,21,VALID,0.760719,
2004-03-17, 01:13:00,VALID,918.143,VALID,0,VALID,91.099,VALID,0.0509425,VALID,19.0793,VALID,11,VALID,0.540923,
2004-03-17, 01:14:00,VALID,918.157,VALID,0,VALID,90.8765,VALID,0.0339617,VALID,19.086,VALID,339,VALID,0.298971,
2004-03-17, 01:15:00,VALID,918.146,VALID,0,VALID,90.7849,VALID,0.0169808,VALID,19.0825,VALID,339,VALID,0.00218023,
2004-03-17, 01:16:00,VALID,918.155,VALID,0,VALID,90.3017,VALID,-0.0849042,VALID,19.1001,VALID,10,VALID,0.49184,
2004-03-17, 01:17:00,VALID,918.147,VALID,0,VALID,90.4569,VALID,-0.0339617,VALID,19.1294,VALID,26,VALID,0.330966,
2004-03-17, 01:18:00,VALID,918.132,VALID,0,VALID,90.7201,VALID,-0.0169808,VALID,19.1488,VALID,357,VALID,0.463796,
2004-03-17, 01:19:01,VALID,918.096,VALID,0,VALID,90.186,VALID,-0.0679233,VALID,19.155,VALID,11,VALID,0.599873,
2004-03-17, 01:20:00,VALID,918.061,VALID,0,VALID,90.5014,VALID,-0.0509425,VALID,19.1908,VALID,15,VALID,0.463672,
2004-03-17, 01:21:00,VALID,918.018,VALID,0,VALID,90.0805,VALID,-0.0339617,VALID,19.1873,VALID,1,VALID,0.887074,
2004-03-17, 01:22:01,VALID,917.995,VALID,0,VALID,90.0067,VALID,-0.0679233,VALID,19.2163,VALID,8,VALID,0.65767,
2004-03-17, 01:23:00,VALID,917.994,VALID,0,VALID,90.2687,VALID,-0.0849042,VALID,19.236,VALID,14,VALID,0.534108,
2004-03-17, 01:24:00,VALID,917.981,VALID,0,VALID,90.4352,VALID,-0.101885,VALID,19.2131,VALID,14,VALID,0.00483631,
2004-03-17, 01:25:00,VALID,917.974,VALID,0,VALID,90.6552,VALID,-0.0679233,VALID,19.2071,VALID,14,VALID,0.135121,
2004-03-17, 01:26:01,VALID,917.962,VALID,0,VALID,90.6044,VALID,-0.0849042,VALID,19.1741,VALID,16,VALID,0.404018,
2004-03-17, 01:27:00,VALID,917.953,VALID,0,VALID,90.9757,VALID,-0.0509425,VALID,19.1414,VALID,21,VALID,0.619851,
2004-03-17, 01:28:01,VALID,917.924,VALID,0,VALID,91.3279,VALID,-0.0339617,VALID,19.0996,VALID,20,VALID,0.372049,
2004-03-17, 01:29:00,VALID,917.914,VALID,0,VALID,91.3508,VALID,-0.0509425,VALID,19.0745,VALID,12,VALID,0.87173,
2004-03-17, 01:30:00,VALID,917.917,VALID,0,VALID,91.1092,VALID,-0.0679233,VALID,19.0551,VALID,6,VALID,0.732088,
2004-03-17, 01:31:01,VALID,917.908,VALID,0,VALID,91.0596,VALID,-0.0849042,VALID,19.0651,VALID,11,VALID,0.0810547,
2004-03-17, 01:32:00,VALID,917.874,VALID,0,VALID,91.1041,VALID,-0.0679233,VALID,19.0648,VALID,11,VALID,0,
2004-03-17, 01:33:01,VALID,917.848,VALID,0,VALID,91.422,VALID,-0.0169808,VALID,19.0544,VALID,11,VALID,0.0115132,
2004-03-17, 01:34:00,VALID,917.829,VALID,0,VALID,91.6382,VALID,-0.0679233,VALID,19.0484,VALID,12,VALID,0.411395,
2004-03-17, 01:35:01,VALID,917.836,VALID,0,VALID,92.143,VALID,-0.0679233,VALID,19.0358,VALID,13,VALID,0.241806,
2004-03-17, 01:36:00,VALID,917.821,VALID,0,VALID,92.0044,VALID,-0.0849042,VALID,19.0132,VALID,12,VALID,0.39375,
2004-03-17, 01:37:00,VALID,917.805,VALID,0,VALID,92.1913,VALID,-0.0169808,VALID,18.9965,VALID,12,VALID,0.467969,
2004-03-17, 01:38:00,VALID,917.796,VALID,0,VALID,91.7539,VALID,-0.101885,VALID,18.9839,VALID,7,VALID,0.723958,
2004-03-17, 01:39:00,VALID,917.783,VALID,0,VALID,91.9128,VALID,-0.0169808,VALID,18.9968,VALID,22,VALID,0.619141,
2004-03-17, 01:40:01,VALID,917.765,VALID,0,VALID,91.9268,VALID,-0.0169808,VALID,18.9836,VALID,18,VALID,0.959695,
2004-03-17, 01:41:01,VALID,917.786,VALID,0,VALID,91.656,VALID,-0.0169808,VALID,18.9906,VALID,19,VALID,0.668064,
2004-03-17, 01:42:00,VALID,917.792,VALID,0,VALID,91.7068,VALID,0,VALID,18.9931,VALID,14,VALID,0.351749,
2004-03-17, 01:43:00,VALID,917.815,VALID,0,VALID,91.4068,VALID,-0.0339617,VALID,19,VALID,9,VALID,0.416295,
2004-03-17, 01:44:00,VALID,917.822,VALID,0,VALID,91.3444,VALID,-0.0679233,VALID,19.0261,VALID,9,VALID,0.34747,
2004-03-17, 01:45:00,VALID,917.796,VALID,0,VALID,91.2542,VALID,-0.0849042,VALID,19.0681,VALID,1,VALID,0.629972,
2004-03-17, 01:46:01,VALID,917.768,VALID,0,VALID,90.776,VALID,0.0169808,VALID,19.0989,VALID,354,VALID,0.651677,
2004-03-17, 01:47:01,VALID,917.766,VALID,0,VALID,90.7379,VALID,0,VALID,19.1436,VALID,337,VALID,0.527616,
2004-03-17, 01:48:00,VALID,917.747,VALID,0,VALID,90.8943,VALID,0.0169808,VALID,19.1826,VALID,336,VALID,0.324505,
2004-03-17, 01:49:01,VALID,917.736,VALID,0,VALID,90.9464,VALID,0.0169808,VALID,19.1858,VALID,336,VALID,0.223899,
2004-03-17, 01:50:00,VALID,917.719,VALID,0,VALID,91.3775,VALID,0,VALID,19.1888,VALID,337,VALID,0.263081,
2004-03-17, 01:51:01,VALID,917.696,VALID,0,VALID,91.1092,VALID,0.0169808,VALID,19.1695,VALID,337,VALID,0.0130814,
2004-03-17, 01:52:01,VALID,917.681,VALID,0,VALID,90.2445,VALID,0.0169808,VALID,19.1697,VALID,334,VALID,0.164621,
2004-03-17, 01:53:00,VALID,917.674,VALID,0,VALID,90.5446,VALID,0,VALID,19.2055,VALID,335,VALID,0.253348,
2004-03-17, 01:54:00,VALID,917.633,VALID,0,VALID,91.7857,VALID,0,VALID,19.2281,VALID,345,VALID,0.281436,
2004-03-17, 01:55:01,VALID,917.601,VALID,0,VALID,92.3159,VALID,0.0339617,VALID,19.2149,VALID,348,VALID,0.116642,
2004-03-17, 01:56:00,VALID,917.582,VALID,0,VALID,91.9523,VALID,0,VALID,19.1893,VALID,348,VALID,0.0163517,
2004-03-17, 01:57:01,VALID,917.56,VALID,0,VALID,91.6127,VALID,0,VALID,19.1598,VALID,348,VALID,0,
2004-03-17, 01:58:01,VALID,917.539,VALID,0,VALID,91.9879,VALID,0,VALID,19.1603,VALID,348,VALID,0,
2004-03-17, 01:59:01,VALID,917.516,VALID,0,VALID,92.0909,VALID,0,VALID,19.1565,VALID,348,VALID,0.382813,
2004-03-17, 02:00:00,VALID,917.491,VALID,0,VALID,92.3274,VALID,0.0169808,VALID,19.154,VALID,346,VALID,0.623757,
2004-03-17, 02:01:00,VALID,917.488,VALID,0,VALID,92.2384,VALID,0,VALID,19.121,VALID,324,VALID,0.115039,
2004-03-17, 02:02:00,VALID,917.484,VALID,0,VALID,91.9612,VALID,0.0509425,VALID,19.0987,VALID,327,VALID,0.268787,
2004-03-17, 02:03:00,VALID,917.496,VALID,0,VALID,91.291,VALID,0.0509425,VALID,19.0721,VALID,353,VALID,0.803329,
2004-03-17, 02:04:00,VALID,917.491,VALID,0,VALID,90.7748,VALID,0,VALID,19.0984,VALID,17,VALID,0.931021,
2004-03-17, 02:05:01,VALID,917.489,VALID,0,VALID,91.1893,VALID,0,VALID,19.1307,VALID,16,VALID,0.518288,
2004-03-17, 02:06:01,VALID,917.465,VALID,0,VALID,91.3661,VALID,0.0169808,VALID,19.131,VALID,16,VALID,0.745094,
2004-03-17, 02:07:01,VALID,917.472,VALID,0,VALID,91.2351,VALID,0,VALID,19.1282,VALID,6,VALID,0.661701,
2004-03-17, 02:08:00,VALID,917.463,VALID,0,VALID,91.478,VALID,0.0169808,VALID,19.1123,VALID,18,VALID,0.387386,
2004-03-17, 02:09:01,VALID,917.443,VALID,0,VALID,90.8905,VALID,0,VALID,19.0758,VALID,356,VALID,0.907522,
2004-03-17, 02:10:01,VALID,917.404,VALID,0,VALID,90.7989,VALID,0,VALID,19.1019,VALID,4,VALID,0.909598,
2004-03-17, 02:11:01,VALID,917.353,VALID,0,VALID,90.8587,VALID,0.0169808,VALID,19.1116,VALID,12,VALID,1.12009,
2004-03-17, 02:12:01,VALID,917.343,VALID,0,VALID,90.7926,VALID,0.0509425,VALID,19.1081,VALID,12,VALID,1.25362,
2004-03-17, 02:13:01,VALID,917.324,VALID,0,VALID,90.5713,VALID,0.0169808,VALID,19.1017,VALID,349,VALID,0.995427,
2004-03-17, 02:14:01,VALID,917.315,VALID,0,VALID,90.364,VALID,0.0169808,VALID,19.1143,VALID,358,VALID,1.11151,
2004-03-17, 02:15:00,VALID,917.301,VALID,0,VALID,90.3666,VALID,0,VALID,19.1314,VALID,357,VALID,0.940874,
2004-03-17, 02:16:01,VALID,917.285,VALID,0,VALID,90.5332,VALID,0,VALID,19.1243,VALID,355,VALID,0.767361,
2004-03-17, 02:17:01,VALID,917.245,VALID,0,VALID,90.5179,VALID,0,VALID,19.1183,VALID,286,VALID,0.395461,
2004-03-17, 02:18:01,VALID,917.225,VALID,0,VALID,90.3539,VALID,0,VALID,19.125,VALID,356,VALID,0.76029,
2004-03-17, 02:19:01,VALID,917.212,VALID,0,VALID,90.2585,VALID,0,VALID,19.1379,VALID,19,VALID,1.20401,
2004-03-17, 02:20:00,VALID,917.202,VALID,0,VALID,90.303,VALID,0.0169808,VALID,19.1665,VALID,1,VALID,1.71802,
2004-03-17, 02:21:01,VALID,917.203,VALID,0,VALID,90.2394,VALID,0,VALID,19.193,VALID,10,VALID,1.23597,
2004-03-17, 02:22:01,VALID,917.185,VALID,0,VALID,90.0321,VALID,0,VALID,19.1796,VALID,351,VALID,0.944097,
2004-03-17, 02:23:01,VALID,917.17,VALID,0,VALID,90.0182,VALID,-0.0169808,VALID,19.1863,VALID,353,VALID,0.549183,
2004-03-17, 02:24:01,VALID,917.12,VALID,0,VALID,89.9444,VALID,0.0339617,VALID,19.1729,VALID,340,VALID,0.882254,
2004-03-17, 02:25:01,VALID,917.088,VALID,0,VALID,90.0182,VALID,0.0169808,VALID,19.1955,VALID,11,VALID,1.00286,
2004-03-17, 02:26:01,VALID,917.039,VALID,0,VALID,89.9864,VALID,0,VALID,19.1861,VALID,3,VALID,1.8497,
2004-03-17, 02:27:01,VALID,916.985,VALID,0,VALID,89.7333,VALID,-0.0339617,VALID,19.2248,VALID,4,VALID,1.40176,
2004-03-17, 02:28:01,VALID,916.971,VALID,0,VALID,89.334,VALID,0.0169808,VALID,19.3217,VALID,13,VALID,1.0799,
2004-03-17, 02:29:01,VALID,916.961,VALID,0,VALID,89.142,VALID,0,VALID,19.3537,VALID,14,VALID,0.851563,
2004-03-17, 02:30:01,VALID,916.943,VALID,0,VALID,89.2081,VALID,0.0169808,VALID,19.3311,VALID,353,VALID,0.724657,
2004-03-17, 02:31:00,VALID,916.933,VALID,0,VALID,89.011,VALID,0.0169808,VALID,19.3277,VALID,336,VALID,1.06214,
2004-03-17, 02:32:01,VALID,916.909,VALID,0,VALID,88.9615,VALID,0.0169808,VALID,19.3373,VALID,2,VALID,1.00345,
2004-03-17, 02:33:01,VALID,916.93,VALID,0,VALID,89.0759,VALID,0.0169808,VALID,19.3376,VALID,8,VALID,0.790516,
2004-03-17, 02:34:01,VALID,916.959,VALID,0,VALID,89.5553,VALID,0,VALID,19.3249,VALID,8,VALID,0.692294,
2004-03-17, 02:35:01,VALID,916.964,VALID,0,VALID,89.5782,VALID,0.0169808,VALID,19.2698,VALID,7,VALID,0.930778,
2004-03-17, 02:36:01,VALID,916.989,VALID,0,VALID,89.8249,VALID,0,VALID,19.2278,VALID,350,VALID,0.674665,
2004-03-17, 02:37:01,VALID,916.974,VALID,0,VALID,89.8783,VALID,0,VALID,19.2122,VALID,335,VALID,0.412157,
2004-03-17, 02:38:01,VALID,916.977,VALID,0,VALID,89.8999,VALID,0,VALID,19.2082,VALID,335,VALID,0.417436,
2004-03-17, 02:39:01,VALID,916.979,VALID,0,VALID,89.9177,VALID,0.0169808,VALID,19.208,VALID,343,VALID,0.553819,
2004-03-17, 02:40:01,VALID,916.972,VALID,0,VALID,90.2229,VALID,0,VALID,19.2117,VALID,13,VALID,0.88157,
2004-03-17, 02:41:01,VALID,916.998,VALID,0,VALID,90.6234,VALID,0.0169808,VALID,19.1503,VALID,5,VALID,1.01758,
2004-03-17, 02:42:01,VALID,917.006,VALID,0,VALID,90.6756,VALID,0.0169808,VALID,19.1148,VALID,348,VALID,0.657848,
2004-03-17, 02:43:01,VALID,917.019,VALID,0,VALID,90.5332,VALID,0.0169808,VALID,19.1148,VALID,336,VALID,0.510156,
2004-03-17, 02:44:01,VALID,917.027,VALID,0,VALID,90.7303,VALID,0.0169808,VALID,19.1213,VALID,23,VALID,0.52123,
2004-03-17, 02:45:01,VALID,917,VALID,0,VALID,90.9108,VALID,0,VALID,19.0924,VALID,21,VALID,0.481898,
2004-03-17, 02:46:01,VALID,916.995,VALID,0,VALID,91.1766,VALID,0.0169808,VALID,19.0696,VALID,18,VALID,0.179324,
2004-03-17, 02:47:01,VALID,916.978,VALID,0,VALID,91.4322,VALID,0,VALID,19.0505,VALID,18,VALID,0.232777,
2004-03-17, 02:48:01,VALID,916.992,VALID,0,VALID,91.4805,VALID,0,VALID,19.0246,VALID,358,VALID,0.552591,
2004-03-17, 02:49:01,VALID,916.992,VALID,0,VALID,91.3203,VALID,0.0339617,VALID,19.0147,VALID,338,VALID,0.81875,
2004-03-17, 02:50:01,VALID,917.005,VALID,0,VALID,91.141,VALID,0,VALID,19.0373,VALID,323,VALID,0.693788,
2004-03-17, 02:51:00,VALID,916.996,VALID,0,VALID,91.1003,VALID,0,VALID,19.0763,VALID,1,VALID,0.922476,
2004-03-17, 02:52:00,VALID,917.006,VALID,0,VALID,91.0482,VALID,0.0339617,VALID,19.089,VALID,9,VALID,0.792696,
2004-03-17, 02:53:00,VALID,917.006,VALID,0,VALID,91.0176,VALID,0.0169808,VALID,19.0984,VALID,15,VALID,0.620508,
2004-03-17, 02:54:00,VALID,917.014,VALID,0,VALID,91.0723,VALID,0.0509425,VALID,19.1084,VALID,22,VALID,0.0167411,
2004-03-17, 02:55:00,VALID,917.022,VALID,0,VALID,91.0952,VALID,0.0169808,VALID,19.1215,VALID,22,VALID,0.00093006,
2004-03-17, 02:56:00,VALID,917.021,VALID,0,VALID,91.2898,VALID,0.0509425,VALID,19.1312,VALID,22,VALID,0.0274346,
2004-03-17, 02:57:00,VALID,917.027,VALID,0,VALID,91.6242,VALID,0.0339617,VALID,19.1339,VALID,22,VALID,0,
2004-03-17, 02:58:00,VALID,917.037,VALID,0,VALID,91.6878,VALID,0,VALID,19.1473,VALID,22,VALID,0,
2004-03-17, 02:59:00,VALID,917.058,VALID,0,VALID,91.4296,VALID,0.0169808,VALID,19.1473,VALID,22,VALID,0.144631,
2004-03-17, 03:00:00,VALID,917.066,VALID,0,VALID,91.333,VALID,0.0339617,VALID,19.1469,VALID,22,VALID,0.00186012,
2004-03-17, 03:01:00,VALID,917.067,VALID,0,VALID,91.4958,VALID,-0.0849042,VALID,19.1577,VALID,22,VALID,0,
2004-03-17, 03:02:00,VALID,917.049,VALID,0,VALID,91.6217,VALID,-0.101885,VALID,19.1746,VALID,19,VALID,0.191489,
2004-03-17, 03:03:00,VALID,917.049,VALID,0,VALID,91.0558,VALID,-0.0339617,VALID,19.1741,VALID,353,VALID,0.451172,
2004-03-17, 03:04:00,VALID,917.052,VALID,0,VALID,91.6941,VALID,-0.0849042,VALID,19.2002,VALID,353,VALID,0.244681,
2004-03-17, 03:05:00,VALID,917.06,VALID,0,VALID,92.3007,VALID,-0.0849042,VALID,19.2029,VALID,353,VALID,0.0992543,
2004-03-17, 03:06:00,VALID,917.063,VALID,0,VALID,92.2753,VALID,-0.0849042,VALID,19.1774,VALID,353,VALID,0,
2004-03-17, 03:07:00,VALID,917.057,VALID,0,VALID,92.3503,VALID,-0.0679233,VALID,19.1418,VALID,353,VALID,0.0637429,
2004-03-17, 03:08:00,VALID,917.057,VALID,0,VALID,92.6148,VALID,-0.0339617,VALID,19.119,VALID,353,VALID,0.0826671,
2004-03-17, 03:09:00,VALID,917.051,VALID,0,VALID,92.6962,VALID,-0.0339617,VALID,19.1125,VALID,353,VALID,0,
2004-03-17, 03:10:00,VALID,917.052,VALID,0,VALID,92.8615,VALID,-0.0509425,VALID,19.0964,VALID,353,VALID,0.112926,
2004-03-17, 03:11:00,VALID,917.054,VALID,0,VALID,93.2531,VALID,-0.0679233,VALID,19.11,VALID,353,VALID,0,
2004-03-17, 03:12:00,VALID,917.035,VALID,0,VALID,93.4858,VALID,-0.101885,VALID,19.0807,VALID,353,VALID,0,
2004-03-17, 03:13:00,VALID,917.021,VALID,0,VALID,93.9144,VALID,-0.0679233,VALID,19.0581,VALID,353,VALID,0,
2004-03-17, 03:14:00,VALID,917.011,VALID,0,VALID,94.1903,VALID,-0.101885,VALID,19.0452,VALID,353,VALID,0,
2004-03-17, 03:15:00,VALID,917.005,VALID,0,VALID,94.306,VALID,-0.0849042,VALID,19.033,VALID,355,VALID,0.24891,
2004-03-17, 03:16:00,VALID,917.002,VALID,0,VALID,94.2437,VALID,-0.0849042,VALID,19.0003,VALID,360,VALID,0.328472,
2004-03-17, 03:17:00,VALID,917.012,VALID,0,VALID,94.3416,VALID,-0.101885,VALID,18.9647,VALID,360,VALID,0.225977,
2004-03-17, 03:18:00,VALID,916.995,VALID,0,VALID,94.4955,VALID,-0.0509425,VALID,18.9292,VALID,360,VALID,0.0142912,
2004-03-17, 03:19:00,VALID,916.966,VALID,0,VALID,94.2412,VALID,-0.101885,VALID,18.9032,VALID,360,VALID,0.0078125,
2004-03-17, 03:20:00,VALID,916.927,VALID,0,VALID,94.4675,VALID,-0.0679233,VALID,18.8937,VALID,25,VALID,0.58346,
2004-03-17, 03:21:00,VALID,916.914,VALID,0,VALID,94.6468,VALID,-0.0849042,VALID,18.8771,VALID,21,VALID,0.265625,
2004-03-17, 03:22:00,VALID,916.918,VALID,0,VALID,94.7117,VALID,-0.0849042,VALID,18.8743,VALID,25,VALID,0.208807,
2004-03-17, 03:23:00,VALID,916.942,VALID,0,VALID,94.5819,VALID,-0.0679233,VALID,18.8644,VALID,35,VALID,0.139353,
2004-03-17, 03:24:00,VALID,916.941,VALID,0,VALID,94.4192,VALID,-0.0849042,VALID,18.8582,VALID,35,VALID,0.0381747,
2004-03-17, 03:25:00,VALID,916.906,VALID,0,VALID,94.3658,VALID,-0.0849042,VALID,18.8483,VALID,35,VALID,0.134909,
2004-03-17, 03:26:00,VALID,916.923,VALID,0,VALID,94.4026,VALID,-0.101885,VALID,18.855,VALID,29,VALID,0.652778,
2004-03-17, 03:27:00,VALID,916.936,VALID,0,VALID,94.5196,VALID,-0.101885,VALID,18.8388,VALID,30,VALID,0.392113,
2004-03-17, 03:28:00,VALID,916.933,VALID,0,VALID,94.5552,VALID,-0.0849042,VALID,18.8261,VALID,30,VALID,0.376334,
2004-03-17, 03:29:00,VALID,916.916,VALID,0,VALID,94.7778,VALID,-0.0849042,VALID,18.7902,VALID,30,VALID,0.405895,
2004-03-17, 03:30:00,VALID,916.901,VALID,0,VALID,95.0168,VALID,-0.0679233,VALID,18.7708,VALID,313,VALID,0.514695,
2004-03-17, 03:31:00,VALID,916.889,VALID,0,VALID,95.1758,VALID,0.0509425,VALID,18.7433,VALID,13,VALID,0.433254,
2004-03-17, 03:32:00,VALID,916.903,VALID,0,VALID,95.439,VALID,0,VALID,18.7246,VALID,4,VALID,0.46689,
2004-03-17, 03:33:00,VALID,916.926,VALID,0,VALID,95.6208,VALID,0.0339617,VALID,18.708,VALID,3,VALID,0.44494,
2004-03-17, 03:34:00,VALID,916.935,VALID,0,VALID,95.7264,VALID,0,VALID,18.6951,VALID,10,VALID,0.239644,
2004-03-17, 03:35:00,VALID,916.914,VALID,0,VALID,95.9171,VALID,0.0339617,VALID,18.6693,VALID,16,VALID,0.687318,